SDM601 UIII-UIUU

Flight info

Callsign SDM601
Flight time 0h 27m
Altitude 17000
Route GOLOS4D GOLOS A810 KUDAR A806 OSTUN OSTUN5P
Aircraft A320/M-SDE3FGHIRWY/LB1

Departure

Time 2026-04-20 14:47
Airport Irkutsk International Airport (UIII)

Arrival

Time 2026-04-20 15:15
Airport Baikal International Airport (UIUU)
Time Latitude Longitude Altitude Speed Heading
2026-04-20 14:24 52.27119 104.36792 1585 ft 0 kts 199°
2026-04-20 14:39 52.27088 104.36779 1585 ft 11 kts 183°
2026-04-20 14:39 52.27050 104.36861 1585 ft 8 kts 109°
2026-04-20 14:40 52.27020 104.36992 1584 ft 16 kts 110°
2026-04-20 14:40 52.26990 104.37159 1585 ft 14 kts 94°
2026-04-20 14:40 52.26995 104.37301 1585 ft 11 kts 108°
2026-04-20 14:40 52.26968 104.37409 1586 ft 9 kts 114°
2026-04-20 14:41 52.26945 104.37495 1587 ft 11 kts 113°
2026-04-20 14:41 52.26900 104.37664 1591 ft 16 kts 113°
2026-04-20 14:41 52.26863 104.37805 1594 ft 11 kts 113°
2026-04-20 14:41 52.26834 104.37917 1598 ft 14 kts 113°
2026-04-20 14:42 52.26796 104.38057 1607 ft 11 kts 113°
2026-04-20 14:42 52.26765 104.38177 1610 ft 20 kts 113°
2026-04-20 14:42 52.26703 104.38411 1615 ft 23 kts 113°
2026-04-20 14:42 52.26639 104.38649 1617 ft 22 kts 114°
2026-04-20 14:43 52.26570 104.38906 1636 ft 29 kts 113°
2026-04-20 14:43 52.26494 104.39194 1644 ft 27 kts 113°
2026-04-20 14:43 52.26417 104.39490 1644 ft 29 kts 113°
2026-04-20 14:43 52.26339 104.39778 1651 ft 27 kts 114°
2026-04-20 14:44 52.26267 104.40054 1657 ft 26 kts 112°
2026-04-20 14:44 52.26198 104.40314 1670 ft 24 kts 114°
2026-04-20 14:44 52.26132 104.40562 1673 ft 23 kts 113°
2026-04-20 14:44 52.26070 104.40791 1676 ft 20 kts 114°
2026-04-20 14:45 52.26019 104.40982 1677 ft 17 kts 114°
2026-04-20 14:45 52.26005 104.41140 1681 ft 12 kts 64°
2026-04-20 14:45 52.26041 104.41194 1692 ft 0 kts 24°
2026-04-20 14:45 52.26115 104.41246 1695 ft 27 kts 23°
2026-04-20 14:46 52.26236 104.41253 1693 ft 17 kts 306°
2026-04-20 14:46 52.26250 104.41206 1693 ft 6 kts 293°
2026-04-20 14:46 52.26351 104.40824 1687 ft 74 kts 294°
2026-04-20 14:46 52.26649 104.39712 1641 ft 138 kts 294°
2026-04-20 14:47 52.27078 104.38101 1946 ft 159 kts 293°
2026-04-20 14:47 52.27526 104.36417 2698 ft 164 kts 293°
2026-04-20 14:47 52.27980 104.34701 3467 ft 165 kts 295°
2026-04-20 14:48 52.28984 104.31395 4667 ft 169 kts 323°
2026-04-20 14:48 52.30123 104.30881 4924 ft 190 kts
2026-04-20 14:48 52.31307 104.32133 5221 ft 228 kts 48°
2026-04-20 14:48 52.31800 104.34803 5653 ft 268 kts 85°
2026-04-20 14:49 52.31636 104.37935 6379 ft 282 kts 91°
2026-04-20 14:49 52.31406 104.41161 7148 ft 289 kts 92°
2026-04-20 14:49 52.31192 104.44449 7961 ft 294 kts 92°
2026-04-20 14:49 52.31013 104.47808 8801 ft 299 kts 92°
2026-04-20 14:50 52.30871 104.51225 9623 ft 304 kts 91°
2026-04-20 14:50 52.30751 104.54709 10388 ft 311 kts 92°
2026-04-20 14:50 52.30638 104.58371 10647 ft 335 kts 91°
2026-04-20 14:50 52.30525 104.62295 11007 ft 354 kts 91°
2026-04-20 14:51 52.30408 104.66360 11640 ft 361 kts 91°
2026-04-20 14:51 52.30286 104.70501 12332 ft 368 kts 91°
2026-04-20 14:51 52.30159 104.74700 13023 ft 374 kts 92°
2026-04-20 14:51 52.30024 104.78978 13708 ft 380 kts 92°
2026-04-20 14:52 52.29886 104.83326 14322 ft 386 kts 91°
2026-04-20 14:52 52.29747 104.87745 14938 ft 392 kts 91°
2026-04-20 14:52 52.29605 104.92222 15535 ft 397 kts 91°
2026-04-20 14:52 52.29459 104.96752 16142 ft 402 kts 90°
2026-04-20 14:53 52.29306 105.01331 16707 ft 409 kts 90°
2026-04-20 14:53 52.29150 105.06015 17092 ft 416 kts 89°
2026-04-20 14:53 52.28989 105.10733 17155 ft 415 kts 89°
2026-04-20 14:53 52.28824 105.15431 17150 ft 415 kts 90°
2026-04-20 14:54 52.28656 105.20142 17157 ft 415 kts 90°
2026-04-20 14:54 52.28489 105.24836 17160 ft 414 kts 90°
2026-04-20 14:54 52.28321 105.29531 17153 ft 414 kts 90°
2026-04-20 14:54 52.28181 105.34226 17157 ft 412 kts 85°
2026-04-20 14:55 52.28271 105.38891 17158 ft 411 kts 83°
2026-04-20 14:55 52.28374 105.43557 17157 ft 411 kts 83°
2026-04-20 14:55 52.28475 105.48218 17159 ft 411 kts 83°
2026-04-20 14:55 52.28573 105.52891 17165 ft 411 kts 83°
2026-04-20 14:56 52.28662 105.57560 17157 ft 411 kts 84°
2026-04-20 14:56 52.28745 105.62231 17155 ft 412 kts 84°
2026-04-20 14:56 52.28825 105.66906 17156 ft 412 kts 84°
2026-04-20 14:56 52.28906 105.71584 17148 ft 412 kts 84°
2026-04-20 14:57 52.28989 105.76252 17154 ft 412 kts 84°
2026-04-20 14:57 52.29073 105.80931 17155 ft 412 kts 84°
2026-04-20 14:57 52.29159 105.85621 17162 ft 412 kts 84°
2026-04-20 14:57 52.29244 105.90288 17159 ft 412 kts 84°
2026-04-20 14:58 52.29324 105.94969 17165 ft 412 kts 84°
2026-04-20 14:58 52.29399 105.99656 17167 ft 412 kts 84°
2026-04-20 14:58 52.29470 106.04271 17180 ft 412 kts 84°
2026-04-20 14:58 52.29540 106.08958 17175 ft 412 kts 84°
2026-04-20 14:59 52.29606 106.13627 17171 ft 413 kts 84°
2026-04-20 14:59 52.29671 106.18320 17169 ft 413 kts 84°
2026-04-20 14:59 52.29733 106.23005 17160 ft 413 kts 84°
2026-04-20 14:59 52.29794 106.27687 17156 ft 413 kts 84°
2026-04-20 15:00 52.29853 106.32374 17159 ft 413 kts 84°
2026-04-20 15:00 52.29912 106.37081 17159 ft 413 kts 84°
2026-04-20 15:00 52.29875 106.41781 17156 ft 416 kts 92°
2026-04-20 15:00 52.29348 106.46429 17154 ft 419 kts 105°
2026-04-20 15:01 52.28287 106.50873 17157 ft 420 kts 117°
2026-04-20 15:01 52.26742 106.54902 17171 ft 418 kts 130°
2026-04-20 15:01 52.24903 106.58564 17158 ft 418 kts 132°
2026-04-20 15:01 52.23047 106.62227 17138 ft 419 kts 132°
2026-04-20 15:02 52.21194 106.65890 17136 ft 419 kts 132°
2026-04-20 15:02 52.19335 106.69570 17135 ft 420 kts 132°
2026-04-20 15:02 52.17482 106.73235 17135 ft 420 kts 132°
2026-04-20 15:02 52.15626 106.76901 17123 ft 420 kts 132°
2026-04-20 15:03 52.13767 106.80560 17121 ft 420 kts 132°
2026-04-20 15:03 52.11894 106.84233 17103 ft 421 kts 132°
2026-04-20 15:03 52.10021 106.87898 17098 ft 422 kts 132°
2026-04-20 15:03 52.08127 106.91557 17096 ft 422 kts 133°
2026-04-20 15:04 52.06223 106.95194 17086 ft 423 kts 133°
2026-04-20 15:04 52.04510 106.99080 17082 ft 426 kts 120°
2026-04-20 15:04 52.03300 107.03462 17077 ft 425 kts 106°
2026-04-20 15:04 52.02637 107.08115 17044 ft 421 kts 97°
2026-04-20 15:05 52.02136 107.12767 16548 ft 419 kts 97°
2026-04-20 15:05 52.01638 107.17410 16091 ft 416 kts 97°
2026-04-20 15:05 52.01138 107.22021 15626 ft 413 kts 97°
2026-04-20 15:05 52.00637 107.26592 15190 ft 410 kts 98°
2026-04-20 15:06 52.00139 107.31102 14340 ft 404 kts 98°
2026-04-20 15:06 51.99642 107.35568 13468 ft 400 kts 98°
2026-04-20 15:06 51.99148 107.39978 12666 ft 394 kts 97°
2026-04-20 15:06 51.98660 107.44304 11983 ft 383 kts 97°
2026-04-20 15:07 51.98191 107.48417 11801 ft 359 kts 97°
2026-04-20 15:07 51.97746 107.52321 11354 ft 348 kts 96°
2026-04-20 15:07 51.97314 107.56144 10802 ft 342 kts 96°
2026-04-20 15:07 51.96884 107.59950 9913 ft 346 kts 95°
2026-04-20 15:08 51.96450 107.63809 8891 ft 349 kts 96°
2026-04-20 15:08 51.95992 107.67673 7925 ft 348 kts 101°
2026-04-20 15:08 51.95042 107.71199 7432 ft 336 kts 123°
2026-04-20 15:08 51.93523 107.73939 6974 ft 320 kts 142°
2026-04-20 15:09 51.91650 107.75699 6229 ft 314 kts 163°
2026-04-20 15:09 51.89580 107.76162 5951 ft 286 kts 189°
2026-04-20 15:09 51.87757 107.75538 5845 ft 254 kts 208°
2026-04-20 15:09 51.86307 107.74244 5659 ft 223 kts 225°
2026-04-20 15:10 51.85264 107.72614 5464 ft 191 kts 240°
2026-04-20 15:10 51.84599 107.70924 5208 ft 172 kts 252°
2026-04-20 15:10 51.84228 107.69192 4969 ft 155 kts 265°
2026-04-20 15:10 51.84014 107.67544 4740 ft 145 kts 265°
2026-04-20 15:11 51.83814 107.65982 4523 ft 139 kts 265°
2026-04-20 15:11 51.83620 107.64468 4310 ft 136 kts 265°
2026-04-20 15:11 51.83429 107.62979 4110 ft 134 kts 265°
2026-04-20 15:11 51.83240 107.61506 3898 ft 133 kts 264°
2026-04-20 15:12 51.83051 107.60040 3689 ft 133 kts 264°
2026-04-20 15:12 51.82863 107.58579 3489 ft 133 kts 264°
2026-04-20 15:12 51.82674 107.57117 3277 ft 132 kts 264°
2026-04-20 15:12 51.82487 107.55663 3064 ft 132 kts 263°
2026-04-20 15:13 51.82298 107.54204 2847 ft 133 kts 262°
2026-04-20 15:13 51.82047 107.52751 2639 ft 135 kts 257°
2026-04-20 15:13 51.81781 107.51299 2468 ft 135 kts 257°
2026-04-20 15:13 51.81533 107.49831 2189 ft 134 kts 260°
2026-04-20 15:14 51.81349 107.48365 1980 ft 133 kts 261°
2026-04-20 15:14 51.81174 107.46894 1805 ft 133 kts 260°
2026-04-20 15:14 51.80982 107.45446 1684 ft 129 kts 261°
2026-04-20 15:14 51.80834 107.44248 1693 ft 85 kts 258°
2026-04-20 15:15 51.80747 107.43589 1695 ft 35 kts 257°
2026-04-20 15:15 51.80727 107.43445 1691 ft 11 kts 257°
2026-04-20 15:15 51.80710 107.43317 1694 ft 12 kts 258°
2026-04-20 15:15 51.80698 107.43230 1692 ft 12 kts 258°